TimeCST,TemperatureF,Dew PointF,Humidity,Sea Level PressureIn,VisibilityMPH,Wind Direction,Wind SpeedMPH,Gust SpeedMPH,PrecipitationIn,Events,Conditions,WindDirDegrees,DateUTC
6:00 AM,71,70,97,29.85,12,NE,4.6,,,,Scattered Clouds,40,2012-11-05 12:00:00
6:00 AM,71.6,69.8,94,29.83,6.2,NE,4.6,-,N/A,Fog,Partly Cloudy,40,2012-11-05 12:00:00
7:00 AM,77.0,71.6,83,29.85,6.2,East,3.5,-,N/A,,Scattered Clouds,80,2012-11-05 13:00:00
8:00 AM,80.6,75.2,84,29.86,6.2,SSW,3.5,-,N/A,,Scattered Clouds,200,2012-11-05 14:00:00
9:00 AM,86,71,52,29.88,12,ENE,16.1,,,,Scattered Clouds,70,2012-11-05 15:00:00
9:00 AM,86.0,35.6,17,29.87,6.2,ENE,16.1,-,N/A,,Scattered Clouds,70,2012-11-05 15:00:00
10:00 AM,87.8,69.8,55,29.87,6.2,East,13.8,-,N/A,,Scattered Clouds,90,2012-11-05 16:00:00
11:00 AM,89.6,69.8,52,29.86,6.2,East,11.5,-,N/A,,Scattered Clouds,100,2012-11-05 17:00:00
12:00 PM,90,69,40,29.85,12,ENE,11.5,,,,Scattered Clouds,60,2012-11-05 18:00:00
12:00 PM,89.6,68.0,49,29.83,6.2,ENE,11.5,-,N/A,,Scattered Clouds,60,2012-11-05 18:00:00
1:00 PM,89.6,68.0,49,29.81,6.2,ENE,9.2,-,N/A,,Scattered Clouds,70,2012-11-05 19:00:00
2:00 PM,89.6,68.0,49,29.78,6.2,East,8.1,-,N/A,,Overcast,80,2012-11-05 20:00:00
3:00 PM,89,75,56,29.78,12,East,8.1,,,,Overcast,80,2012-11-05 21:00:00
3:00 PM,89.6,75.2,62,29.77,6.2,East,8.1,-,N/A,,Mostly Cloudy,80,2012-11-05 21:00:00
4:00 PM,89.6,73.4,59,29.77,6.2,ENE,10.4,-,N/A,,Mostly Cloudy,70,2012-11-05 22:00:00
5:00 PM,84.2,69.8,62,29.79,6.2,East,8.1,-,N/A,,Mostly Cloudy,90,2012-11-05 23:00:00
6:00 PM,81,69,58,29.83,12,ENE,6.9,,,,Overcast,70,2012-11-06 00:00:00
6:00 PM,80.6,68.0,65,29.82,6.2,ENE,6.9,-,N/A,,Mostly Cloudy,70,2012-11-06 00:00:00
7:00 PM,78.8,69.8,74,29.83,6.2,East,4.6,-,N/A,,Mostly Cloudy,100,2012-11-06 01:00:00
8:00 PM,77.0,69.8,78,29.86,6.2,ESE,3.5,-,N/A,,Mostly Cloudy,120,2012-11-06 02:00:00